sat.trackr.live / text

‹ back to catalog

STARLINK-4151

NORAD 53034 · 2022-076BA

PAYLOAD ACTIVE UNKNOWN

§ Identity

Operator
Country
US
Launch date
2022-07-07
Launch site
AFETR
Launch vehicle
Mass (kg)
RCS (m²)

Purposes: comms

External: N2YO · Heavens-Above · Gunter

§ Orbital elements

Epoch: 2026-09-19T14:29:45.439296Z

Period
94.01 min
Inclination
53.1595°
Eccentricity
0.0001311
Mean motion
15.31716777 rev/d
Perigee alt
469.8 km
Apogee alt
471.6 km
Semi-major
6,848.8 km
B*
7.1527e-5
RAAN
271.9985°
Arg perigee
84.1741°
Mean anomaly
275.9410°
Rev number
23,255

§ Raw data

STARLINK-41511 53034U 22076BA  26262.60399814  .00001856  00000+0  71527-4 0  99952 53034  53.1595 271.9985 0001311  84.1741 275.9410 15.31716777232557

JSON: /api/v1/satellites/53034 · /tle

For live sub-satellite position, see the globe view (requires WebGL).

§ Visibility from observer

Set your observer location to see the next 7 days of passes ≥ 10°. The values pass through the URL so the page stays shareable.

No JS? Fill the form by hand. The geolocation button needs JavaScript.